Theta_e
324 327 329 332 333 343 345 347 348 351 353 352 344 342 341 342 345 349 355 357 355 353 352 347 350 347 344 341 344 342 340 336 336 337 336 334 337 336 336 338 337 336 337
322 323 325 335 339 344 344 347 346 350 352 346 344 342 342 341 343 350 355 357 355 353 352 348 347 346 345 345 345 341 336 335 337 333 331 324 328 333 334 335 336 334 335
316 322 326 332 336 340 341 344 345 344 346 344 345 348 346 348 349 353 355 354 354 353 351 348 347 347 346 342 343 340 337 332 338 337 330 322 318 324 331 331 334 334 334
318 320 324 330 335 337 340 343 345 344 345 349 345 344 339 338 343 352 353 352 353 351 350 348 348 347 344 344 340 341 338 339 332 335 335 333 329 320 319 328 330 333 332
317 318 320 324 326 327 330 334 340 345 344 345 345 342 345 345 355 354 352 352 351 347 347 347 348 345 344 345 341 339 341 340 335 333 331 330 329 328 322 318 323 329 330
316 317 320 321 322 326 327 332 335 337 344 347 348 347 346 344 347 346 347 345 344 343 344 345 346 345 345 346 344 344 341 339 337 335 332 327 324 323 323 321 321 321 326
316 317 318 319 322 324 325 331 340 340 344 345 347 345 343 349 354 349 345 342 340 340 344 345 344 346 348 346 343 343 341 340 337 335 331 331 330 328 327 325 321 320 323
314 316 318 321 320 323 326 328 335 337 343 343 343 348 347 349 352 347 343 341 342 343 345 347 345 347 346 344 344 342 340 339 337 335 334 333 332 329 326 325 321 317 320
315 318 320 327 329 329 337 332 337 337 339 340 347 348 351 354 350 350 346 345 346 347 346 348 345 345 345 343 342 340 339 338 337 335 335 332 332 332 329 328 326 322 315
315 317 319 323 328 330 336 338 342 342 347 348 349 350 353 355 352 352 348 348 349 348 347 345 345 344 342 342 340 338 338 336 336 335 334 333 333 331 331 329 328 326 321
314 320 325 334 334 336 332 342 343 346 346 348 349 350 351 353 352 349 345 347 347 345 344 343 342 341 341 340 338 337 336 333 333 333 332 329 332 330 330 330 327 327 325
314 326 328 331 334 336 337 340 344 344 347 346 347 346 347 346 346 345 344 345 343 342 341 341 339 338 337 337 336 334 334 332 331 329 328 328 330 329 330 329 327 326 325
311 328 328 329 331 334 336 341 344 342 342 343 342 341 341 342 343 343 343 343 342 342 338 337 336 334 334 334 335 334 333 332 331 329 327 324 325 328 328 329 329 328 327
311 328 329 334 337 336 337 337 339 340 340 340 340 341 342 342 342 341 342 340 339 338 337 335 333 334 334 335 335 335 333 332 332 328 323 322 324 325 328 330 328 328 326
310 327 328 334 335 334 336 336 338 339 339 337 338 340 341 341 340 339 339 339 338 337 335 336 334 334 331 328 333 334 333 332 328 325 323 323 324 323 324 329 328 328 326
308 318 329 331 334 334 332 334 335 336 339 336 337 338 337 336 337 338 338 339 335 335 336 333 334 331 325 305 312 326 331 328 325 322 323 325 321 321 315 318 319 323 326
308 314 326 330 334 330 333 332 336 337 336 334 334 334 334 333 334 335 334 332 333 336 334 334 334 330 323 305 309 313 332 328 325 323 324 325 328 325 326 315 314 316 315
309 319 326 330 332 334 331 332 334 333 331 330 330 331 331 332 332 331 332 333 336 337 335 334 332 328 320 306 308 317 330 327 325 324 324 327 328 327 328 328 328 326 326
320 325 328 333 335 336 331 331 330 330 329 329 330 331 330 329 330 330 333 336 334 334 334 333 330 327 323 306 308 320 326 325 324 324 324 325 327 309 308 328 326 322 320
323 324 325 331 334 336 331 330 329 328 328 328 329 330 329 331 329 332 334 335 334 334 335 332 329 318 325 304 309 318 325 322 320 320 321 306 318 305 309 328 325 321 319
323 326 325 328 332 335 330 329 329 327 331 331 330 330 329 330 334 335 336 334 333 333 332 329 327 327 325 318 304 304 327 323 320 319 316 314 298 301 305 311 326 319 319
321 323 325 329 332 332 331 328 329 331 332 331 331 331 331 330 332 335 335 335 334 331 331 327 326 328 326 309 303 301 308 315 320 316 313 305 298 300 302 310 300 303 312
321 324 323 329 330 332 330 328 330 332 331 332 328 331 330 328 332 330 331 332 332 331 330 327 325 324 324 318 301 300 303 306 319 316 302 297 296 298 300 299 301 308 319
323 323 327 329 329 330 331 333 332 332 332 328 330 332 330 329 332 333 335 333 333 331 330 329 326 323 323 323 319 318 315 306 308 306 309 303 304 306 307 309 314 319 319
323 327 328 327 328 329 329 332 333 333 330 329 330 329 330 332 328 319 318 330 318 323 330 330 327 323 321 322 315 317 321 320 311 313 316 315 316 315 317 319 320 320 319
324 329 327 327 327 326 329 332 330 334 330 330 328 328 329 332 330 327 320 296 296 297 296 307 323 325 309 298 298 300 300 300 299 316 315 314 315 316 317 319 319 319 316
Wind_Speed
16 15 18 20 19 9 9 9 8 7 4 3 4 4 5 5 6 6 7 7 8 10 11 9 7 8 7 7 6 5 5 3 3 3 1 3 6 8 7 4 3 3 5
18 24 19 9 8 10 10 9 9 8 7 6 5 4 5 7 7 6 7 7 8 9 9 9 8 10 6 6 5 5 3 3 4 4 1 3 3 7 5 3 3 5 4
20 16 14 9 7 9 9 9 10 10 10 11 6 5 6 4 3 4 5 6 8 8 9 10 9 9 6 6 4 5 6 5 4 5 3 3 1 2 2 5 4 3 1
15 16 13 9 6 6 7 9 11 12 11 11 9 9 8 7 5 4 6 6 6 7 9 10 8 6 7 5 7 5 5 5 3 3 3 4 1 1 1 1 2 3 3
19 19 16 13 12 13 12 11 10 12 14 14 13 9 8 6 3 4 6 6 5 6 6 8 7 6 6 6 9 8 8 5 4 4 3 3 4 4 3 2 2 1 2
25 21 19 19 18 17 16 12 14 15 14 12 13 10 8 8 6 7 7 6 5 4 6 9 8 6 8 7 8 6 7 4 4 3 4 3 3 3 2 3 4 3 2
16 12 17 17 14 12 13 9 10 12 12 13 12 14 11 11 8 11 9 9 6 5 10 10 7 8 6 6 6 6 6 5 4 4 4 2 3 2 2 3 3 2 2
15 16 9 10 15 15 12 13 9 9 9 10 11 9 13 8 8 11 9 7 8 9 10 10 10 8 8 6 6 4 4 4 4 6 3 2 1 3 3 4 4 1 2
13 8 8 6 6 7 6 10 10 10 10 11 10 10 11 10 12 11 13 10 10 9 12 10 8 8 6 7 6 4 4 4 5 3 3 2 2 3 2 3 4 4 3
8 7 11 12 11 11 6 9 9 11 11 10 10 10 10 8 12 10 14 13 9 12 11 10 7 6 6 6 6 4 5 5 4 3 4 3 3 4 3 4 3 4 3
9 9 7 5 6 3 8 7 8 11 11 11 11 11 10 10 12 11 9 12 10 10 8 7 7 6 5 5 7 5 4 5 6 5 5 4 3 3 3 3 3 3 3
11 4 10 8 8 8 11 10 11 12 13 10 11 12 12 11 11 10 10 10 9 8 7 7 7 7 6 6 6 5 5 6 7 6 5 4 3 5 5 2 5 5 4
16 7 8 12 13 13 12 13 13 12 14 13 13 9 8 10 11 10 9 8 7 6 7 5 6 5 7 6 6 5 5 4 7 7 6 4 3 5 4 4 4 6 6
16 4 5 7 11 15 14 12 12 16 14 13 12 11 11 11 10 10 8 8 6 6 6 5 6 5 5 5 4 3 2 5 6 6 5 5 2 6 5 5 6 6 7
16 7 6 5 4 14 14 13 15 16 14 14 13 12 11 10 10 8 7 7 7 5 7 5 6 6 8 6 5 3 4 5 7 6 5 4 2 5 4 2 4 6 7
14 5 2 7 5 11 12 12 13 14 15 14 14 12 11 11 9 8 7 7 8 7 5 6 6 9 7 6 7 4 5 6 5 6 5 4 4 2 7 4 2 1 12
11 7 0 9 4 7 11 11 15 15 14 13 13 12 12 11 8 8 7 8 7 6 6 7 9 9 7 7 6 3 2 6 5 5 5 4 3 4 4 3 2 6 9
9 12 3 9 8 4 5 12 15 14 13 13 13 13 12 11 9 6 9 6 7 6 6 9 9 9 5 6 6 7 6 7 5 4 2 3 6 5 5 5 8 10 9
6 7 11 7 3 3 7 13 14 13 13 13 13 14 12 11 6 10 8 8 8 5 5 9 9 8 5 4 4 6 6 5 5 4 2 1 4 7 4 8 11 10 8
4 5 10 10 7 4 7 14 13 13 13 12 12 11 14 12 9 9 8 7 6 6 5 9 9 10 6 4 6 4 6 6 5 4 3 8 5 8 6 10 10 10 8
3 4 11 12 10 7 10 13 12 12 13 13 11 13 11 12 11 7 5 8 6 7 8 10 7 7 7 5 7 7 4 5 5 4 3 2 7 9 9 6 9 10 10
5 4 9 18 11 7 13 12 10 14 13 11 15 13 10 9 8 8 6 5 7 9 9 9 5 7 7 7 7 9 8 9 7 5 4 3 9 12 14 11 15 16 11
4 3 10 14 11 14 12 12 14 13 10 12 14 12 8 7 10 8 7 6 7 7 8 7 8 6 6 5 8 11 12 12 8 5 8 10 11 13 12 15 14 11 8
5 11 9 12 14 15 12 13 14 12 11 14 12 9 8 9 7 6 5 5 6 6 5 7 8 7 5 6 6 6 9 14 9 9 5 8 7 9 9 6 6 6 6
9 10 17 14 17 13 13 16 15 13 15 11 10 9 7 8 9 8 5 3 4 2 7 5 7 8 6 5 6 7 8 7 7 7 5 4 5 7 4 3 7 7 6
9 12 10 10 17 14 14 16 15 14 13 11 8 8 9 8 8 8 8 15 9 10 11 8 7 7 12 11 11 15 17 16 12 6 6 5 5 5 4 6 7 6 7
Wind_Direction
262 258 231 224 224 160 164 167 173 186 186 218 213 227 224 222 228 203 209 192 173 177 177 201 212 208 207 203 199 171 176 182 208 240 225 223 213 222 223 243 180 211 248
245 242 249 234 168 164 171 181 187 185 188 211 229 234 215 225 218 192 184 175 162 172 178 190 224 200 208 193 207 162 153 188 229 205 150 262 235 231 231 258 205 223 228
250 253 230 225 209 187 188 184 186 197 205 215 232 220 230 251 272 170 160 156 155 168 176 192 220 188 198 195 175 169 178 201 198 170 203 255 182 103 219 232 216 239 239
247 254 249 233 222 224 198 190 193 201 208 203 216 215 215 213 204 198 145 147 162 181 178 183 216 170 185 206 181 167 197 212 179 152 212 255 344 215 237 219 210 217 207
256 240 245 248 239 238 229 216 207 201 203 202 211 209 213 205 174 130 139 145 125 122 148 177 213 173 190 212 169 187 199 167 190 178 192 188 204 182 228 270 233 130 214
238 245 239 241 242 232 223 213 207 211 197 195 190 198 216 207 174 158 134 135 130 131 187 189 206 185 208 182 170 173 172 169 162 202 273 175 180 170 163 231 263 222 139
243 236 233 228 229 233 234 212 195 190 183 188 185 196 223 196 185 146 152 152 155 182 201 189 192 199 193 172 162 141 149 159 188 206 239 186 104 117 205 221 250 153 135
286 230 252 244 224 218 211 206 183 170 176 183 188 189 205 186 145 146 141 161 174 185 182 190 184 187 177 151 120 127 163 171 186 214 189 81 131 158 219 230 183 148 132
263 253 252 266 262 234 192 177 159 174 181 194 186 184 193 188 150 154 155 175 175 174 176 176 171 174 163 131 142 166 179 174 198 168 158 179 257 251 215 221 187 178 145
225 261 249 240 239 240 193 161 161 168 163 172 174 179 173 163 147 148 168 167 155 154 166 168 173 146 125 148 147 196 186 156 162 164 154 186 241 282 287 198 187 165 164
247 244 241 359 313 193 157 130 165 147 159 162 172 156 174 136 131 150 130 137 149 144 155 149 135 141 157 176 194 123 139 175 169 175 158 208 236 244 265 263 168 139 157
290 223 263 251 251 256 134 178 150 160 158 142 119 119 119 126 120 116 122 126 129 144 162 158 159 169 175 142 137 174 208 205 175 161 157 204 198 234 226 256 153 142 114
304 170 222 229 217 209 182 153 157 133 112 112 116 116 121 127 123 123 125 134 145 148 127 134 167 147 124 145 168 176 217 172 161 159 160 167 335 243 225 201 155 150 142
297 86 196 245 213 185 153 144 127 121 121 125 130 135 135 132 132 133 142 132 144 139 151 145 106 126 134 120 96 113 145 163 150 137 142 129 16 292 217 191 184 153 140
315 94 203 242 95 106 105 116 121 132 139 140 138 133 135 132 129 134 139 146 148 128 108 104 87 103 71 47 50 77 102 123 125 135 139 157 204 304 35 341 195 150 130
312 14 185 188 148 115 122 137 138 143 137 133 132 139 139 137 141 141 146 115 112 110 119 104 107 86 83 56 53 38 115 130 140 146 154 189 193 153 74 99 317 199 142
295 330 35 212 125 125 149 158 134 128 129 133 139 146 148 146 126 136 109 120 111 124 113 109 102 96 92 60 40 21 114 121 131 160 166 188 199 160 157 122 70 103 120
292 342 168 229 149 101 143 131 124 131 139 147 154 156 130 125 132 134 124 117 109 112 118 112 107 93 85 60 46 61 100 102 111 109 156 178 156 190 156 161 111 105 108
347 14 320 209 135 185 141 132 136 150 153 157 160 127 133 143 152 130 129 120 121 143 127 119 112 114 102 43 57 108 90 103 114 103 119 254 102 77 63 113 104 89 79
10 344 326 216 181 186 165 139 154 155 163 148 123 127 138 127 121 134 142 123 140 149 121 102 103 111 115 55 39 49 131 126 112 90 95 29 110 91 121 119 116 108 113
19 331 302 199 186 177 153 153 160 166 121 126 121 123 136 137 132 141 137 133 162 132 119 107 116 118 113 81 39 21 164 135 120 115 103 81 73 74 71 114 118 119 118
340 299 287 192 178 185 151 156 162 122 125 138 118 133 140 144 138 137 144 149 131 129 120 118 125 115 93 51 59 47 64 116 113 113 108 110 104 98 91 94 114 112 115
290 255 284 189 175 162 160 152 123 126 143 122 135 142 143 142 150 145 156 145 150 146 149 150 130 124 117 92 63 59 65 61 101 94 101 111 100 92 94 117 109 107 118
290 290 222 170 167 141 153 128 129 139 123 117 121 105 102 120 137 132 147 172 158 157 159 147 134 125 128 131 124 115 92 81 89 102 81 87 94 102 112 113 120 118 122
283 252 199 155 134 152 149 131 134 128 115 119 112 118 115 116 89 66 3 95 40 254 159 149 135 136 150 146 154 133 127 117 110 119 102 88 105 126 130 144 123 129 132
255 231 164 157 141 156 147 141 143 124 127 130 139 164 148 147 132 119 90 42 39 52 71 107 138 144 129 107 103 105 112 128 157 116 114 112 121 135 143 135 134 146 147